Aérodrome :
LOGIN :

S'inscrire | Disclaimer

   EN    FR    IT 

 










Légende :    VFR   VFR Marginal   IFR   IFR Intensif   IFR Très Intensif
Visi : 
Plafond : 
>= 8 km
>= 3000ft
5 à 8 km
1000 à 3000 ft
1500m à 5 km
500 à 1000 ft
800 à 1500m
200 à 500 ft
< 800m
< 200 ft
Symboles :   Orages  Brouillard  Fortes neiges  Fortes précipitations  Vent > 20 kt
SIGMETs :   Divers  Orages  Givrage  Turbulence  Onde Orograph.  Cendres Volcan.







- Altitude de l'aérodrome : 390 ft
- Code IATA : NQY
- Voir les cartes d'approche


EGHQ - Newquay

DERNIER METAR :
  • 181820Z 18006KT 9999 SCT014 07/05 Q1007

METARs EXPIRÉS :
  • 181750Z 21006KT 9999 SCT015 07/06 Q1007
  • 181720Z 20006KT 9999 SCT018 07/06 Q1007
  • 181650Z 20006KT 9999 SCT017 08/06 Q1007
  • 181620Z 23006KT 9999 SCT015 08/06 Q1007
  • 181550Z 23008KT 9999 SCT015 09/07 Q1007

TAF TAF EGHQ
Valide du 18 à 18h jusqu'au 18 à 22h UTC


181658Z 1818/1822 20005KT 9999 SCT020
TEMPO 1818/1822 7000 SHRA BKN006
PROB30
TEMPO 1818/1822 4000 +SHRAGS BKN004
Pas de NOTAMs connus pour ce terrain.



MET'MAP, la Météo Aéronautique d'un coup d'oeil ! - Copyright ORBIFLY Décembre 2007 - Disclaimer

ORBIFLY MET'MAP TEAM :

Programmation & Développement : Alexandra Zaïnal
Conception & Développement : Baudouin d'Aumeries
Co-Programmation & Développement : Marc-Olivier Méhu
Soutien technique & logistique : Manuel Goepfert

Contact : metmap@orbifly.com




SOURCES & CREDITS :

   NOAA